Regional Weather Roundup
Issued by NWS Bismarck, ND

Home | Current Version | Previous Version | Text Only | Print | Product List | Glossary On
Versions: 1 2 3 4 5 6 7 8 9 10 11 12 13 14 15 16 17 18 19 20 21 22 23 24 25 26 27 28 29 30 31 32 33 34 35 36 37 38 39 40 41 42 43 44 45 46 47 48 49 50
000
ASUS43 KBIS 212102
RWRBIS

NWR BROADCAST TEXT
NATIONAL WEATHER SERVICE BISMARCK ND
300 PM CST SAT JAN 21 2017

NOTE: "FAIR" INDICATES FEW OR NO CLOUDS BELOW 12,000 FEET WITH NO
SIGNIFICANT WEATHER AND/OR OBSTRUCTIONS TO VISIBILITY.


CITY           SKY/WX    TMP DP  RH WIND       PRES   REMARKS
WILLISTON      PTSUNNY   32  25  75 W10       29.39R
MINOT          CLOUDY    31  27  85 SW6       29.37R
MINOT AFB      PTSUNNY   29  27  90 SW7       29.37R
BISMARCK       CLOUDY    32  29  88 NW3       29.41R
DICKINSON      FAIR      34  25  69 W14       29.35R
GARRISON         N/A     25  24  96 SW6       29.38R WCI  18
HETTINGER ARPT FAIR      32  26  78 W13       29.40R
JAMESTOWN      FOG       33  33 100 CALM      29.38R VSB 3/4
CARRINGTON     CLOUDY    34  32  93 NW3       29.41S
HAZEN          FOG      N/A N/A N/A CALM      29.41R VSB 3/4
MANDAN         CLOUDY    28  28 100 W3        29.40R FOG
STANLEY        FAIR      28  30 100 CALM      29.38R
WATFORD CITY   FAIR      32  27  80 W7        29.40R
$$

CITY           SKY/WX    TMP DP  RH WIND       PRES   REMARKS
GRAND FORKS    CLOUDY    37  33  85 E5        29.43R
GRAND FORKS AF CLOUDY    36  34  95 CALM      29.43R
DEVILS LAKE    LGT RAIN  33  33 100 S5        29.41R FOG
FARGO          CLOUDY    39  34  82 E6        29.41R
GRAFTON        CLOUDY    34  34 100 NE5       29.46R FOG
GWINNER        CLOUDY    36  36 100 SE6       29.39R VSB 1/4
$$

CITY           SKY/WX    TMP DP  RH WIND       PRES   REMARKS
ABERDEEN       CLOUDY    32  25  75 W6        29.39R
MOBRIDGE       CLOUDY    29  25  85 NW7       29.37R FOG
BUFFALO          N/A     36  29  75 W10       29.34R
RAPID CITY     FAIR      43  30  60 N8        29.41R
GLASGOW        FAIR      27  22  81 W9        29.42R WCI  18
SIDNEY         FAIR      34  26  72 W7        29.41R
WOLF POINT     FAIR      27  20  75 W13       29.43R WCI  16
GLENDIVE       FAIR      25  22  88 S10       29.43R WCI  15
MILES CITY     FAIR      25  20  81 S6        29.44S WCI  18
BAKER          FAIR      28  24  85 W13       29.42R WCI  17
$$

CITY           SKY/WX    TMP DP  RH WIND       PRES   REMARKS
BILLINGS       PTSUNNY   30  21  69 SW10      29.43S
GREAT FALLS    FAIR      34  21  59 W6        29.46R
$$





USA.gov is the U.S. government's official web portal to all federal, state and local government web resources and services.